Wind_Speed
40 40 38 38 37 36 37 41 37 38 36 34 36 34 35 34 33 29 29 29 29 28 32 30 29 30 32 32 34 35 31 31 27 29 28 28 27 29 29 29 28 28 30 32
44 43 41 42 41 41 40 43 41 42 40 39 39 40 37 36 37 36 31 32 33 33 34 33 30 29 36 34 35 37 34 33 28 31 31 29 30 29 30 29 30 32 34 33
49 44 44 45 45 44 44 45 45 45 44 45 42 45 43 39 41 40 37 37 36 37 37 36 34 33 34 37 40 42 38 36 32 32 32 31 31 30 28 29 30 30 31 32
51 47 49 48 47 46 47 46 47 47 48 49 48 53 47 44 43 44 42 42 40 39 37 38 38 38 39 36 41 41 42 38 36 33 34 34 33 31 28 29 31 30 31 32
52 48 49 48 46 46 49 47 47 48 49 51 49 55 53 46 48 46 46 46 44 41 38 39 40 41 40 41 44 44 42 41 36 34 33 35 34 32 29 32 31 31 31 31
54 54 51 52 50 48 48 49 49 50 51 53 51 50 56 52 51 52 49 46 44 43 40 41 40 42 42 45 48 45 42 40 38 38 37 36 34 34 31 32 32 31 30 31
54 55 53 52 52 51 52 52 51 51 53 53 55 53 52 56 53 52 51 49 46 44 41 41 41 43 45 48 50 48 40 38 37 38 38 37 36 33 33 33 34 34 34 35
53 54 54 53 50 47 47 48 49 52 53 53 54 57 52 53 55 53 49 52 49 45 41 40 41 44 50 50 48 44 37 35 35 36 38 38 38 36 36 36 36 36 36 36
53 53 54 53 50 50 52 53 47 50 52 56 57 57 57 54 53 54 51 50 49 47 45 43 46 47 50 47 42 40 36 35 35 36 38 38 38 38 38 38 38 37 36 36
56 58 58 58 56 54 54 51 51 53 54 56 56 56 56 55 54 53 52 52 51 50 48 49 50 49 43 36 35 36 37 38 37 37 39 39 38 38 38 38 38 37 35 34
49 59 65 63 61 57 56 55 56 54 53 55 56 58 58 57 56 56 57 57 58 55 55 54 47 42 37 31 33 34 36 38 39 39 39 39 39 38 38 38 36 32 33 35
54 55 57 61 66 64 64 61 59 61 60 60 59 62 63 60 58 58 60 59 59 55 51 44 37 36 35 33 34 34 36 38 39 39 40 40 41 42 41 38 35 37 40 40
44 48 51 58 61 65 66 64 64 65 64 65 68 57 57 57 59 59 56 50 46 44 39 37 32 32 36 38 39 40 41 41 40 39 39 37 37 37 37 37 40 41 42 43
35 34 44 50 53 57 58 58 57 59 58 50 51 49 51 53 54 54 52 51 49 47 45 41 35 37 43 42 43 44 43 42 39 38 38 38 38 39 40 42 45 44 43 44
37 32 33 34 40 37 47 49 46 44 45 49 46 46 45 48 50 52 52 49 48 48 48 45 45 47 47 50 47 45 44 43 40 41 42 43 45 46 46 48 48 49 50 52
50 43 40 35 37 36 34 30 41 48 53 52 52 46 50 56 58 55 53 53 53 46 46 48 48 53 54 56 53 48 47 46 47 48 49 50 50 51 51 52 52 53 55 57
55 57 51 48 45 41 40 39 43 41 39 43 46 45 52 53 57 57 57 55 53 53 52 53 52 51 54 56 57 55 54 54 55 57 56 54 54 55 55 58 59 60 61 62
52 53 55 54 52 54 49 47 44 45 44 46 46 44 46 50 50 51 55 56 54 56 55 55 57 57 56 59 61 63 64 64 64 65 64 64 63 65 65 64 65 65 64 66
51 52 52 52 52 52 52 51 51 53 54 52 49 47 51 47 45 45 48 51 54 56 56 58 58 63 69 70 70 69 67 65 67 68 68 68 69 69 67 66 65 65 67 67
47 46 45 46 46 48 50 49 49 49 52 52 50 54 56 56 54 54 56 57 58 58 58 59 61 62 62 64 66 66 64 62 61 64 65 64 67 69 69 71 71 68 69 68
42 42 41 38 40 44 43 44 41 44 47 49 49 52 52 53 61 61 60 58 57 58 60 63 65 66 68 70 73 75 78 78 76 75 72 70 68 70 71 71 73 69 69 67
42 42 42 42 41 42 40 41 44 44 45 46 47 48 49 52 53 57 58 59 59 58 58 59 60 61 62 63 64 65 67 68 66 64 62 63 63 66 71 65 66 66 67 66
47 46 44 45 45 44 45 47 48 49 51 53 53 54 54 54 55 57 56 58 60 62 62 63 64 63 64 65 66 67 68 69 67 65 65 65 61 59 59 62 61 61 61 62
50 49 49 50 47 51 51 52 56 57 58 59 61 62 63 63 63 63 64 64 65 66 66 68 67 69 69 70 71 71 70 69 66 64 59 58 59 59 58 59 58 57 57 53
53 53 55 56 55 58 56 59 62 64 65 66 67 67 66 67 65 67 67 68 69 70 68 65 62 69 71 71 67 67 66 66 65 61 60 56 49 48 52 50 54 49 47 49
55 58 64 63 63 67 65 65 67 70 69 67 68 68 69 71 69 70 70 71 72 71 71 70 72 77 76 71 69 66 71 66 66 58 54 50 48 48 51 53 56 55 54 56
Wind_Direction
244 243 242 243 244 242 240 241 242 247 250 247 246 242 244 249 251 253 260 269 276 281 283 289 295 298 300 307 312 311 302 294 280 280 285 291 292 289 287 287 286 285 287 288
244 244 245 245 243 243 243 246 246 248 252 248 248 251 245 249 257 256 258 269 275 279 283 287 290 294 297 303 310 310 302 292 283 278 282 291 291 289 281 280 281 281 284 287
246 246 246 246 244 244 244 246 247 250 251 255 253 254 253 249 255 262 265 268 273 277 282 286 287 289 294 298 307 309 301 295 284 278 284 287 287 287 287 282 282 283 286 288
246 245 247 248 249 246 247 249 250 251 253 253 254 260 255 255 252 258 263 269 273 275 281 283 284 288 292 293 302 300 298 291 286 280 283 284 283 286 285 283 282 283 284 285
248 247 250 250 250 249 249 249 252 254 255 255 255 260 264 259 261 262 263 266 268 275 277 278 282 286 287 292 297 297 294 288 282 279 282 281 281 282 286 283 284 284 284 283
246 247 245 248 248 248 251 253 252 254 256 257 260 260 264 267 265 267 266 266 269 272 274 275 277 280 282 289 294 294 289 284 278 276 280 278 278 279 280 281 283 282 281 281
246 247 248 247 248 249 249 251 254 256 257 261 263 262 262 269 269 273 274 275 272 271 274 273 274 278 284 288 292 292 282 279 272 270 274 273 272 275 275 277 279 280 280 279
243 243 246 248 249 253 252 253 253 257 258 258 258 262 264 267 268 269 273 274 277 276 273 272 275 279 285 290 289 284 274 272 270 268 269 270 270 273 275 277 278 279 279 280
250 250 251 249 248 247 246 247 253 256 257 260 259 261 262 264 266 270 274 271 275 280 281 280 281 283 287 286 280 276 270 268 268 268 268 268 269 271 274 276 277 277 279 282
241 246 247 247 245 242 246 247 247 249 253 256 261 265 265 268 269 270 274 277 278 279 281 286 289 289 284 277 267 266 264 265 263 264 266 268 272 273 274 275 275 278 280 284
248 247 247 250 249 248 251 251 253 255 256 260 264 263 265 265 270 273 275 277 279 283 286 286 284 280 278 267 262 262 262 262 262 263 264 266 267 268 270 273 275 277 285 288
250 250 248 248 252 254 254 252 254 255 258 259 262 263 266 269 272 271 275 279 280 282 283 282 280 274 267 264 262 261 262 262 263 262 262 263 265 267 269 269 267 275 277 276
241 241 245 249 252 255 257 257 256 259 259 257 261 264 260 265 269 270 271 274 275 277 278 277 273 265 258 255 255 255 258 258 260 263 264 263 262 262 262 262 267 272 275 276
226 239 240 245 249 253 256 257 254 254 255 254 256 259 261 264 263 262 263 266 271 274 274 274 267 257 257 260 262 263 261 261 261 261 262 263 264 266 264 265 268 272 275 277
229 237 234 231 238 241 247 247 247 246 252 253 253 252 256 256 262 264 265 266 267 269 269 268 264 265 265 267 265 265 264 260 260 262 262 263 265 268 269 270 273 275 277 279
255 252 245 245 239 238 226 222 243 246 249 253 251 253 251 253 255 257 260 264 264 263 265 264 265 265 266 268 270 270 271 268 265 265 268 270 270 270 271 273 277 280 283 287
260 265 259 252 246 247 244 246 249 244 241 244 247 253 247 252 255 257 259 262 264 266 263 265 270 264 261 265 270 270 270 269 272 274 274 275 277 277 276 274 275 281 285 289
261 264 269 268 263 256 252 253 249 247 246 248 245 242 245 249 251 258 259 263 263 264 264 260 252 252 253 260 265 266 270 273 275 278 282 283 282 281 281 281 281 283 286 287
251 253 257 265 270 269 259 258 260 261 260 264 258 248 245 248 254 258 259 261 261 262 263 259 257 253 255 260 264 266 271 274 277 278 279 280 281 280 280 281 283 285 285 283
249 250 252 255 260 266 270 271 271 272 273 274 276 276 267 261 268 271 270 272 273 270 268 268 268 267 267 269 271 271 273 275 278 278 279 280 280 280 280 281 281 281 279 279
242 246 251 254 258 256 263 267 268 271 279 277 279 280 279 278 276 275 276 277 276 277 278 277 276 277 278 279 279 279 279 279 280 280 280 280 277 277 276 276 277 279 278 279
244 248 250 254 259 260 261 263 269 272 272 272 272 273 273 275 276 278 279 279 279 277 278 279 279 279 279 278 278 280 278 277 277 278 277 277 279 280 280 282 278 277 278 278
247 251 255 257 263 267 267 270 273 276 278 277 276 275 274 275 277 279 279 279 279 281 282 282 281 278 277 277 276 276 278 278 278 277 275 274 274 275 276 275 277 278 277 274
250 255 260 264 266 270 273 276 277 279 280 281 280 280 280 279 280 281 280 280 278 278 278 277 276 276 278 279 280 281 280 280 280 278 271 273 271 271 272 275 274 272 273 275
255 260 264 267 269 273 275 277 279 280 282 282 282 282 282 281 280 280 280 279 279 279 278 275 265 271 275 277 277 276 276 277 276 273 267 266 264 265 263 263 261 263 270 281
260 265 267 268 270 273 274 276 278 281 283 280 279 281 282 281 280 279 279 278 277 275 274 272 267 266 271 271 270 268 264 266 262 261 266 268 266 267 273 272 268 272 276 279
Height
5786 5789 5794 5797 5800 5804 5806 5806 5811 5812 5814 5819 5821 5825 5827 5829 5831 5835 5836 5837 5838 5838 5836 5838 5838 5835 5833 5834 5832 5830 5828 5826 5827 5825 5825 5825 5824 5823 5822 5820 5819 5818 5817 5816
5779 5783 5787 5789 5793 5795 5799 5800 5804 5805 5806 5811 5813 5815 5820 5823 5825 5827 5831 5831 5831 5831 5831 5831 5833 5831 5826 5826 5826 5824 5822 5820 5821 5819 5818 5819 5817 5815 5814 5813 5812 5811 5810 5808
5768 5776 5778 5781 5784 5787 5790 5792 5795 5797 5799 5801 5805 5804 5809 5817 5817 5820 5823 5824 5825 5825 5824 5823 5824 5824 5823 5820 5818 5817 5815 5814 5814 5813 5812 5811 5810 5809 5808 5806 5805 5804 5803 5801
5759 5766 5768 5772 5777 5780 5781 5785 5787 5789 5790 5794 5796 5790 5799 5805 5811 5812 5815 5816 5817 5817 5817 5816 5815 5815 5814 5814 5811 5810 5808 5807 5806 5806 5805 5804 5803 5802 5802 5800 5798 5797 5795 5794
5753 5757 5759 5764 5768 5770 5773 5776 5778 5779 5780 5782 5789 5785 5785 5799 5799 5804 5806 5806 5808 5809 5809 5809 5807 5808 5805 5805 5803 5802 5799 5798 5798 5798 5797 5795 5795 5795 5795 5792 5791 5789 5788 5787
5740 5743 5749 5753 5757 5761 5765 5766 5768 5768 5770 5773 5778 5782 5779 5785 5789 5789 5794 5798 5800 5800 5800 5800 5799 5798 5797 5796 5794 5792 5790 5789 5789 5789 5789 5788 5787 5787 5786 5784 5783 5781 5780 5778
5729 5733 5739 5744 5747 5750 5754 5755 5756 5758 5759 5766 5765 5770 5775 5771 5776 5780 5782 5785 5787 5789 5790 5790 5790 5789 5787 5785 5783 5781 5780 5779 5779 5779 5779 5779 5778 5778 5777 5775 5774 5773 5772 5770
5716 5721 5727 5733 5738 5742 5744 5746 5748 5745 5747 5755 5754 5755 5766 5766 5766 5769 5772 5770 5773 5775 5778 5779 5779 5778 5777 5775 5772 5769 5768 5769 5769 5768 5769 5769 5768 5768 5768 5766 5765 5764 5763 5761
5706 5711 5716 5722 5725 5728 5731 5729 5742 5735 5739 5739 5745 5750 5753 5756 5757 5757 5758 5760 5760 5761 5763 5766 5767 5767 5766 5764 5761 5759 5758 5758 5760 5759 5759 5759 5758 5758 5758 5757 5756 5755 5753 5752
5695 5696 5700 5705 5709 5713 5715 5723 5724 5723 5726 5727 5735 5737 5744 5745 5745 5745 5746 5747 5748 5750 5751 5751 5753 5752 5751 5750 5750 5749 5749 5749 5749 5748 5748 5748 5748 5748 5748 5747 5746 5746 5744 5743
5683 5684 5689 5691 5695 5702 5707 5710 5712 5716 5719 5720 5725 5729 5729 5732 5731 5732 5734 5734 5735 5737 5738 5739 5739 5739 5738 5738 5739 5739 5739 5739 5739 5738 5738 5738 5738 5738 5737 5737 5737 5736 5735 5734
5669 5672 5676 5681 5682 5687 5693 5698 5700 5702 5708 5710 5715 5716 5719 5723 5721 5721 5721 5721 5722 5724 5724 5724 5726 5727 5728 5728 5728 5728 5728 5729 5729 5729 5728 5728 5728 5728 5727 5726 5726 5725 5725 5722
5658 5660 5666 5668 5672 5673 5676 5684 5689 5691 5691 5694 5698 5706 5708 5707 5708 5708 5709 5710 5709 5710 5712 5713 5715 5717 5717 5715 5715 5715 5715 5717 5717 5718 5718 5718 5718 5717 5716 5716 5715 5713 5712 5710
5648 5650 5655 5658 5661 5661 5664 5669 5672 5673 5674 5683 5684 5695 5696 5695 5692 5692 5695 5697 5699 5700 5701 5702 5703 5702 5701 5703 5704 5704 5704 5706 5706 5706 5706 5706 5706 5706 5705 5704 5702 5701 5699 5698
5639 5642 5646 5648 5651 5650 5652 5655 5658 5660 5664 5666 5677 5680 5683 5682 5681 5680 5683 5687 5688 5688 5688 5690 5689 5688 5689 5689 5691 5693 5694 5694 5695 5694 5693 5693 5692 5692 5692 5691 5689 5688 5686 5685
5627 5630 5634 5638 5638 5640 5643 5646 5647 5649 5652 5655 5658 5669 5669 5664 5664 5667 5672 5672 5673 5674 5675 5675 5676 5675 5676 5676 5678 5681 5683 5684 5684 5683 5682 5680 5679 5678 5677 5676 5675 5674 5673 5671
5617 5617 5622 5624 5626 5627 5633 5639 5638 5641 5642 5642 5645 5657 5649 5655 5652 5654 5656 5658 5662 5664 5665 5663 5663 5664 5664 5665 5665 5666 5666 5667 5668 5668 5667 5667 5666 5664 5663 5660 5658 5657 5655 5654
5604 5607 5607 5610 5614 5617 5628 5628 5628 5629 5629 5628 5637 5639 5640 5642 5644 5642 5643 5645 5647 5648 5650 5652 5653 5652 5652 5651 5652 5651 5649 5650 5651 5651 5650 5650 5648 5647 5646 5644 5642 5640 5638 5636
5592 5595 5598 5598 5600 5606 5615 5616 5616 5614 5615 5618 5621 5625 5627 5629 5630 5630 5631 5632 5633 5634 5635 5636 5637 5637 5636 5635 5635 5635 5635 5634 5634 5633 5632 5631 5630 5629 5628 5626 5623 5622 5620 5618
5581 5583 5586 5588 5589 5593 5601 5601 5602 5602 5605 5610 5609 5609 5613 5615 5616 5618 5619 5619 5618 5620 5620 5620 5620 5620 5621 5620 5619 5619 5618 5618 5618 5616 5615 5613 5612 5611 5610 5608 5606 5604 5602 5599
5571 5573 5577 5577 5576 5584 5591 5589 5589 5588 5596 5593 5595 5597 5598 5599 5601 5604 5606 5605 5605 5604 5603 5604 5605 5604 5603 5601 5601 5600 5600 5599 5598 5597 5596 5595 5593 5592 5590 5589 5587 5584 5583 5580
5560 5562 5565 5566 5567 5575 5579 5577 5578 5579 5579 5580 5582 5583 5584 5585 5586 5587 5588 5588 5588 5587 5587 5586 5587 5587 5586 5584 5582 5581 5579 5579 5578 5577 5576 5575 5574 5573 5571 5569 5567 5565 5564 5562
5548 5551 5554 5557 5558 5561 5562 5563 5563 5563 5564 5563 5566 5568 5570 5572 5571 5570 5571 5571 5569 5567 5567 5566 5566 5566 5564 5564 5562 5561 5558 5558 5557 5556 5555 5555 5554 5553 5552 5550 5548 5547 5546 5545
5535 5540 5541 5541 5551 5547 5548 5549 5545 5546 5548 5549 5549 5550 5551 5554 5555 5553 5551 5553 5552 5552 5551 5549 5549 5547 5543 5541 5539 5538 5538 5537 5536 5536 5536 5536 5536 5534 5534 5533 5531 5532 5528 5527
5525 5528 5528 5529 5534 5529 5533 5530 5528 5529 5531 5533 5532 5532 5534 5534 5539 5534 5536 5532 5531 5531 5530 5529 5528 5526 5524 5522 5521 5519 5518 5518 5518 5518 5518 5518 5519 5518 5518 5518 5516 5514 5512 5511
5516 5515 5508 5512 5515 5508 5516 5514 5511 5509 5513 5514 5512 5516 5514 5511 5515 5514 5515 5512 5510 5509 5507 5507 5507 5506 5504 5503 5503 5502 5501 5500 5501 5501 5502 5502 5502 5500 5500 5500 5497 5496 5493 5494